Location: The Saddle
(36.8333°N, 80.3417°W)
Time: 13:21:15
(UTC-04:00)

Courier 1B - Pass Details

Date: 26 September 2024
Orbit: 962 x 1208 km, 28.3° (Epoch: 06 October)

Event Time Altitude Azimuth Distance (km) Brightness Sun altitude
Rises 10:15:47 0° 227° (SW) 3,630 10.4 33.9°
Reaches altitude 10° 10:18:52 10° 214° (SW) 2,681 9.9 34.4°
Maximum altitude 10:24:00 25° 161° (SSE) 1,823 10.1 35.2°
Drops below altitude 10° 10:29:13 10° 108° (ESE) 2,728 11.0 36.1°
Sets 10:32:23 0° 96° (E) 3,707 11.3 36.6°
